Left ArrowRight Arrow

39.12711, -84.51439

Hourly Observations for June 15, 2024

Temp ( °F °C ) Dew Point ( °F °C ) Humidity (%) Winds ( mph kmh ) Pressure ( in mb ) Visibility ( mi km ) Precip ( " mm )
12:53 am 00:53 Clear 67 19.4 61 16.1 81 81 Calm 29.99 1016 10 16 0.00 0.00
1:53 am 01:53 Partly Cloudy 66 18.9 59 15 78 78 Calm 30.01 1016 10 16 0.00 0.00
2:53 am 02:53 Mostly Cloudy 67 19.4 56 13.3 68 68 N 5 7 30.01 1016 10 16 0.00 0.00
3:53 am 03:53 Partly Cloudy 66 18.9 56 13.3 70 70 NE 6 9 30.03 1017 10 16 0.00 0.00
4:53 am 04:53 Clear 65 18.3 54 12.2 68 68 NE 3 6 30.05 1018 10 16 0.00 0.00
5:53 am 05:53 Clear 59 15 54 12.2 83 83 ENE 3 6 30.07 1018 10 16 0.00 0.00
6:53 am 06:53 Sunny 60 15.6 54 12.2 80 80 NE 5 7 30.10 1019 10 16 0.00 0.00
7:53 am 07:53 Sunny 66 18.9 56 13.3 70 70 Calm 30.12 1020 10 16 0.00 0.00
8:53 am 08:53 Sunny 70 21.1 50 10 49 49 ENE 9 15 30.13 1020 10 16 0.00 0.00
10:53 am 10:53 Sunny 77 25 47 8.3 35 35 NE 9 15 30.14 1021 10 16 0.00 0.00
11:53 am 11:53 Sunny 79 26.1 47 8.3 32 32 ENE 10 17 30.13 1020 10 16 0.00 0.00
12:53 pm 12:53 Sunny 81 27.2 47 8.3 30 30 NNE 7 11 30.13 1020 10 16 0.00 0.00
1:53 pm 13:53 Sunny 83 28.3 48 8.9 30 30 VRB 7 11 30.11 1020 10 16 0.00 0.00
2:53 pm 14:53 Sunny 84 28.9 48 8.9 29 29 E 7 11 30.09 1019 10 16 0.00 0.00
3:53 pm 15:53 Sunny 84 28.9 50 10 31 31 ENE 9 15 30.09 1019 10 16 0.00 0.00
4:53 pm 16:53 Sunny 84 28.9 50 10 31 31 VRB 6 9 30.08 1019 10 16 0.00 0.00
5:53 pm 17:53 Sunny 84 28.9 49 9.4 30 30 E 10 17 30.07 1018 10 16 0.00 0.00
6:53 pm 18:53 Sunny 83 28.3 49 9.4 31 31 NE 7 11 30.07 1018 10 16 0.00 0.00
7:53 pm 19:53 Sunny 81 27.2 51 10.6 35 35 ENE 5 7 30.07 1018 10 16 0.00 0.00
8:53 pm 20:53 Sunny 70 21.1 56 13.3 61 61 E 3 6 30.06 1018 10 16 0.00 0.00
9:53 pm 21:53 Clear 66 18.9 56 13.3 70 70 Calm 30.06 1018 10 16 0.00 0.00
10:53 pm 22:53 Clear 64 17.8 55 12.8 73 73 Calm 30.07 1018 10 16 0.00 0.00
11:53 pm 23:53 Clear 61 16.1 55 12.8 81 81 Calm 30.07 1018 10 16 0.00 0.00

Powered by Vaisala Xweather